[[{"header":{"parameterUnit":"m.s-1","parameterCategory":1,"la1":30.2992,"la2":30.254,"lo1":-89.0895,"lo2":-89.0443,"dy":0.0025,"dx":0.0025,"nx":19,"ny":19,"refTime":"2026-04-15T21:00:00:Z","depth":0,"parameterNumber":2,"parameterNumberName":"U-component_of_WINDS"},"data":[0,0,0,-0.5205,-0.5204,-0.5111,-0.5111,-0.5007,-0.5006,0,0,0,0,0,0,0,0,0,0,0,-0.524,-0.524,-0.5205,-0.5203,-0.5111,-0.5111,-0.5007,-0.5006,0,0,0,0,0,0,0,0,0,0,0,-0.5241,-0.524,-0.524,-0.5203,-0.5111,-0.5111,-0.5008,-0.5072,0,0,0,0,0,0,0,0,0,0,-0.5159,-0.5199,-0.524,-0.524,-0.5203,-0.5112,-0.5111,-0.5075,-0.5068,-0.5055,0,-0.5045,0,-0.5024,-0.5,-0.5,0,0,0,-0.5198,-0.5205,-0.5173,-0.524,-0.5202,-0.5112,-0.5151,-0.5071,-0.5063,-0.5046,-0.5043,-0.5039,-0.5022,-0.5,-0.4999,-0.4942,-0.4942,0,0,-0.5203,-0.5228,-0.5179,-0.5169,-0.5183,-0.5154,-0.5148,-0.5066,-0.5065,-0.5043,-0.5036,-0.5021,-0.4999,-0.4999,-0.4942,-0.4942,0,0,0,-0.5221,-0.5232,-0.5202,-0.5173,-0.5155,-0.5152,-0.5145,-0.5069,-0.5057,-0.5035,-0.5019,-0.4999,-0.4998,-0.4942,-0.4942,-0.4968,0,0,0,-0.5224,-0.5243,-0.5204,-0.5219,-0.5157,-0.5111,-0.515,-0.5062,-0.5052,-0.502,-0.4999,-0.4997,-0.4942,-0.4942,-0.4967,-0.4975,0,0,0,-0.5244,-0.5245,-0.5234,-0.5221,-0.5182,-0.5111,-0.5094,-0.5059,-0.5043,-0.5,-0.4996,-0.4942,-0.4942,-0.4966,-0.4974,-0.4968,0,0,0,-0.5272,-0.5257,-0.5235,-0.5213,-0.5183,-0.5128,-0.5095,-0.5052,-0.5019,-0.4998,-0.4942,-0.4942,-0.4966,-0.4973,-0.4968,-0.4968,-0.4971,0,0,-0.5268,-0.5258,-0.5243,-0.522,-0.5176,-0.514,-0.5099,-0.5044,-0.5016,-0.4969,-0.4967,-0.4967,-0.4974,-0.4968,-0.4976,-0.4978,0,0,0,-0.525,-0.524,-0.5222,-0.5191,-0.5149,-0.5114,-0.5063,-0.5042,-0.5001,-0.4997,-0.4963,-0.4966,-0.4962,-0.4961,-0.4962,-0.4958,-0.4943,-0.4943,-0.4943,-0.528,-0.5246,-0.5219,-0.5175,-0.5146,-0.5094,-0.5067,-0.5031,-0.5005,-0.4998,-0.4983,-0.4992,-0.4992,-0.4993,-0.4989,-0.4981,-0.4981,-0.4981,-0.4981,-0.5271,-0.5251,-0.5218,-0.518,-0.5145,-0.5113,-0.5063,-0.5046,-0.5012,-0.5,-0.4994,-0.4984,-0.4997,-0.4991,-0.4983,-0.4982,-0.4982,-0.4982,-0.4982,-0.5286,-0.5271,-0.5247,-0.52,-0.5168,-0.5124,-0.5094,-0.5063,-0.5033,-0.5028,-0.501,-0.501,-0.5006,-0.5022,-0.5022,-0.5022,-0.5022,-0.5022,-0.5022,-0.5312,-0.5285,-0.5262,-0.5217,-0.5195,-0.5161,-0.511,-0.5086,-0.5053,-0.5033,-0.5033,-0.5009,-0.5004,-0.5004,-0.5022,-0.5022,-0.5022,-0.5022,-0.5022,-0.5316,-0.531,-0.5276,-0.5253,-0.5199,-0.517,-0.5131,-0.5088,-0.5064,-0.505,-0.5028,-0.5029,-0.5017,-0.5015,-0.5015,-0.5034,-0.5034,-0.5034,-0.5034,-0.5329,-0.532,-0.5278,-0.5244,-0.5207,-0.517,-0.5133,-0.5095,-0.5054,-0.5038,-0.503,-0.5027,-0.5027,-0.5015,-0.5013,-0.5012,-0.5031,-0.5031,-0.5031,-0.533,-0.5316,-0.529,-0.525,-0.5206,-0.5169,-0.5135,-0.5098,-0.505,-0.503,-0.5025,-0.5025,-0.5019,-0.5019,-0.4998,-0.4996,-0.4994,0,0]},{"header":{"parameterUnit":"m.s-1","parameterCategory":1,"la1":30.2992,"la2":30.254,"lo1":-89.0895,"lo2":-89.0443,"dy":0.0025,"dx":0.0025,"nx":19,"ny":19,"refTime":"2026-04-15T21:00:00:Z","depth":0,"parameterNumber":3,"parameterNumberName":"V-component_of_WINDS"},"data":[0,0,0,4.006,4.0058,3.9986,3.9985,3.9891,3.9891,0,0,0,0,0,0,0,0,0,0,0,4.0083,4.0083,4.006,4.0058,3.9986,3.9985,3.9892,3.9891,0,0,0,0,0,0,0,0,0,0,0,4.0083,4.0083,4.0082,4.0058,3.9986,3.9985,3.9892,3.9946,0,0,0,0,0,0,0,0,0,0,4.0017,4.0041,4.0083,4.0082,4.0057,3.9986,3.9985,3.9949,3.9943,3.9925,0,3.9912,0,3.99,3.9885,3.9884,0,0,0,4.0055,4.0046,4.0025,4.0082,4.0057,3.9986,4.0018,3.9945,3.9939,3.9917,3.9911,3.9907,3.9899,3.9884,3.9884,3.9796,3.9796,0,0,4.0059,4.007,4.003,4.0021,4.0035,4.002,4.0015,3.9941,3.9934,3.991,3.9905,3.9897,3.9883,3.9883,3.9796,3.9796,0,0,0,4.0073,4.0073,4.0054,4.0025,4.0012,4.0018,4.0013,3.9937,3.993,3.9904,3.9896,3.9883,3.9882,3.9797,3.9796,3.9794,0,0,0,4.0075,4.0081,4.0056,4.0062,4.0014,3.9974,4.001,3.9935,3.9927,3.9896,3.9883,3.9881,3.9797,3.9796,3.9794,3.979,0,0,0,4.0087,4.0082,4.0073,4.0063,4.0032,3.9975,3.9964,3.9933,3.9922,3.9884,3.9881,3.9797,3.9796,3.9795,3.9791,3.9771,0,0,0,4.0102,4.007,4.0073,4.0034,4.0033,3.9976,3.9964,3.992,3.9887,3.9882,3.9797,3.9796,3.9795,3.9792,3.9771,3.9756,3.975,0,0,4.0067,4.0066,4.0042,4.0043,3.9988,3.9986,3.9929,3.9887,3.9871,3.9821,3.9819,3.9794,3.9791,3.9771,3.9717,3.9713,0,0,0,4.0034,4.0017,4.0,3.9972,3.9941,3.9914,3.9881,3.9865,3.9823,3.9849,3.9781,3.9779,3.9766,3.9758,3.9755,3.9743,3.9793,3.9793,3.9793,3.9998,3.9984,3.9943,3.992,3.9892,3.986,3.9835,3.9808,3.9798,3.9783,3.9768,3.9737,3.9728,3.9725,3.9714,3.9758,3.9758,3.9758,3.9758,3.9945,3.9919,3.9911,3.9869,3.9853,3.9815,3.9782,3.9778,3.974,3.9747,3.9735,3.9744,3.9721,3.971,3.9758,3.9758,3.9758,3.9758,3.9758,3.992,3.9905,3.9889,3.9848,3.9817,3.9793,3.9759,3.9744,3.973,3.9719,3.9701,3.9701,3.9699,3.9712,3.9712,3.9712,3.9712,3.9711,3.9711,3.9899,3.9882,3.9856,3.9823,3.9804,3.9776,3.9744,3.9723,3.9696,3.9689,3.9688,3.9681,3.9723,3.9733,3.971,3.971,3.971,3.971,3.971,3.985,3.986,3.9819,3.98,3.9761,3.9731,3.9715,3.9675,3.9655,3.9639,3.9634,3.9668,3.9664,3.9667,3.9675,3.9638,3.9638,3.9638,3.9638,3.9828,3.9826,3.9783,3.9754,3.9723,3.9705,3.9658,3.9633,3.9607,3.9594,3.9598,3.9609,3.9612,3.9606,3.961,3.9618,3.9567,3.9567,3.9567,3.9797,3.9792,3.9756,3.9735,3.9703,3.9676,3.9632,3.9596,3.9569,3.9563,3.9584,3.9587,3.9604,3.961,3.9604,3.961,3.9624,0,0]}]]